Wind_Speed
8 8 8 8 8 8 8 8 8 8 8 8 9 9 9 9 9 10 10 11 12 12 13 13 14 14 14 15 17 18 20 21 20 20 20 13 7 9 10 10 11 12 12 13 13 13 13 13 13 14 14 11 10 10 10 10 7 4 2 3 3 4 5 5 6 5 4 6 7 13 18 9 8 8 5 9 13 16 12 8 9 8 4 16 19 26 35 32
9 9 9 9 9 9 9 9 9 9 9 9 9 9 9 9 10 10 10 11 11 12 13 14 14 14 15 16 17 19 21 22 23 20 13 7 7 11 11 10 9 12 14 13 13 13 13 13 15 15 15 11 8 9 9 9 10 7 3 2 5 5 5 4 5 6 5 8 11 18 19 10 8 7 1 2 3 7 9 9 12 15 15 19 23 32 35 33
11 11 10 10 10 10 9 9 9 9 9 9 9 10 10 10 10 11 11 11 11 12 13 14 14 15 15 16 17 19 21 24 22 11 2 2 3 6 12 12 8 11 12 11 11 12 10 10 14 15 15 11 9 10 8 7 9 10 6 2 7 5 5 7 9 12 14 15 12 15 16 13 14 9 4 2 2 1 4 7 11 17 22 26 31 35 34 36
11 11 11 11 11 10 10 10 10 10 10 10 10 10 11 11 11 11 11 12 12 12 12 13 14 15 15 16 17 18 21 22 11 1 3 3 5 2 8 12 9 9 11 11 11 12 10 9 12 14 12 7 8 9 6 9 7 6 8 5 6 2 5 10 11 16 21 20 14 15 15 14 14 7 6 7 5 3 5 13 15 19 28 34 35 36 36 38
10 11 12 12 12 12 12 11 11 11 11 11 11 11 12 11 11 11 12 12 12 12 12 12 13 14 15 16 16 17 17 11 1 4 3 5 5 4 3 8 9 9 11 12 12 13 12 11 13 12 9 4 5 6 5 11 8 2 5 10 10 4 6 11 14 19 23 22 17 13 13 14 11 4 10 13 6 5 11 18 20 23 30 36 38 38 37 38
10 11 12 12 12 13 13 13 13 12 12 12 11 12 12 12 12 12 12 13 13 13 13 12 12 13 15 15 15 16 10 3 2 0 2 3 4 3 1 5 8 8 11 13 13 15 15 14 13 10 7 2 4 5 4 8 8 3 5 9 13 10 8 13 19 23 25 21 14 13 17 18 9 3 13 16 10 9 12 17 19 22 29 34 39 40 39 39
11 11 12 12 13 13 13 14 14 13 13 13 13 13 13 13 13 12 12 13 14 14 13 13 12 12 13 14 15 13 10 9 5 2 5 4 1 2 3 3 7 9 12 14 15 16 18 16 13 9 5 2 3 5 6 8 7 6 5 7 14 15 13 18 23 26 28 22 21 24 22 18 10 6 10 16 17 12 9 13 19 24 29 33 37 38 39 39
11 11 12 12 13 13 13 14 14 14 14 14 14 14 14 14 13 13 13 13 14 14 13 12 11 12 12 13 12 11 14 12 3 3 6 4 3 1 1 2 5 8 11 14 16 17 19 16 14 10 4 2 4 2 6 7 4 6 7 8 12 15 17 22 24 24 28 25 28 25 15 19 19 8 7 12 16 11 9 13 19 26 29 33 35 36 36 33
11 12 12 12 13 13 13 14 14 14 14 14 14 15 15 15 14 13 13 13 14 14 13 12 11 12 12 12 10 9 12 7 2 5 5 5 4 1 2 3 4 7 9 12 15 16 18 17 16 12 5 4 6 4 5 3 3 6 10 12 11 13 18 21 20 21 24 23 23 14 9 22 19 5 4 6 9 11 13 16 21 27 30 32 34 33 30 22
10 11 12 12 13 14 14 14 14 15 15 15 15 15 15 15 15 14 13 14 14 14 13 12 12 12 12 12 6 4 6 3 2 5 6 6 4 3 4 5 6 6 7 11 15 18 21 19 17 13 5 4 6 7 6 5 7 9 10 12 12 15 19 19 18 21 22 19 19 10 9 22 14 5 3 5 11 15 17 20 24 28 29 33 33 28 22 17
11 11 12 12 13 14 15 15 15 15 15 15 14 15 16 16 16 15 14 14 14 14 14 13 13 13 14 12 7 5 6 4 5 6 7 8 6 5 7 7 8 7 6 10 14 19 21 18 15 10 4 3 3 7 7 8 10 11 9 9 11 12 14 15 14 19 16 11 17 14 11 18 8 3 6 13 17 18 21 24 26 28 28 29 26 20 17 18
12 12 12 13 13 14 15 16 15 15 15 15 15 16 15 16 17 16 15 14 15 14 14 14 14 15 14 15 16 8 5 5 6 8 9 9 8 8 9 10 10 8 7 8 11 16 20 17 14 11 5 3 2 3 5 7 8 8 5 4 8 8 7 11 10 14 10 5 15 10 5 11 3 4 7 18 22 21 23 25 25 25 25 22 19 17 15 18
13 13 14 14 14 15 16 16 16 16 16 14 15 15 16 17 17 17 16 15 16 14 14 15 14 16 14 16 17 7 7 11 11 13 10 9 10 10 10 11 11 10 9 9 8 12 20 18 14 12 8 4 2 4 8 12 9 5 3 1 5 7 6 7 6 9 7 5 12 7 2 8 6 10 8 20 24 23 23 23 23 22 21 17 16 17 16 19
14 14 15 15 15 15 16 17 17 16 16 15 15 15 16 17 17 18 17 17 16 14 15 14 14 14 12 18 19 12 14 16 18 20 14 11 12 10 11 11 11 10 8 7 6 9 17 18 15 12 10 9 9 10 9 8 4 2 3 1 2 2 5 7 4 3 3 5 8 10 4 7 8 12 10 23 26 26 23 20 20 21 21 16 16 18 18 21
15 16 16 16 16 16 17 17 17 17 17 16 15 16 16 17 17 17 18 18 17 15 15 14 14 13 13 21 20 11 12 15 19 19 16 16 15 11 11 10 9 8 7 7 4 6 12 15 14 10 11 13 11 7 4 4 3 2 2 4 3 2 5 9 6 4 5 5 4 10 4 5 8 12 13 25 26 26 24 20 21 22 20 17 19 21 20 21
15 16 16 16 17 17 17 17 17 17 17 17 16 16 16 17 17 17 18 18 17 16 14 12 12 9 9 13 10 5 8 11 12 11 14 19 17 13 10 9 9 8 8 7 4 5 9 10 11 12 13 10 4 3 2 4 4 3 1 4 4 3 3 6 6 4 6 4 2 6 4 3 6 8 13 27 26 24 22 20 23 23 19 20 24 24 22 23
15 16 16 17 17 17 17 17 17 17 17 17 16 15 16 17 17 16 17 17 16 13 11 10 8 7 11 10 9 9 7 5 5 6 9 17 17 13 10 11 10 8 9 9 8 9 10 8 7 9 9 4 2 3 1 4 5 3 2 2 4 3 3 3 5 6 2 1 3 3 3 5 8 5 12 26 26 23 20 21 25 22 20 23 26 26 25 24
15 16 16 16 16 17 17 17 17 16 17 17 16 16 16 15 14 13 13 12 9 6 6 9 4 4 9 9 8 8 3 4 7 8 7 12 16 13 11 11 10 9 9 8 10 10 9 7 4 2 2 2 3 4 3 5 4 1 1 1 3 3 4 4 3 5 5 3 4 3 4 7 10 6 10 23 26 22 21 24 24 21 23 26 26 26 26 25
15 16 17 17 17 17 16 16 15 16 17 15 14 15 12 11 10 7 6 5 4 3 3 7 7 3 7 9 9 9 10 13 14 13 9 9 15 15 13 12 11 10 6 2 4 6 7 4 1 2 3 4 4 5 6 6 4 3 3 4 3 4 6 6 5 6 4 5 6 5 7 8 11 8 6 19 24 19 19 22 20 21 24 27 27 27 27 27
16 16 17 17 16 16 16 15 15 15 17 14 13 12 8 9 6 2 8 11 13 11 11 13 15 17 20 22 21 18 18 18 16 13 8 7 14 15 15 15 11 8 4 4 3 4 6 4 4 6 4 4 6 7 7 4 1 2 2 2 4 4 7 7 5 6 3 3 6 6 7 8 11 10 4 17 20 15 16 17 18 22 26 28 29 28 28 28
16 17 16 16 16 16 15 14 15 15 15 15 14 9 6 9 5 4 12 16 19 19 19 22 22 26 30 28 26 22 18 16 16 15 8 7 14 13 13 13 6 4 4 4 3 0 3 6 7 5 6 6 7 6 6 3 1 1 3 4 5 4 7 8 5 8 5 1 6 7 6 9 12 9 3 15 14 11 18 18 18 23 26 29 30 29 29 28
16 16 15 15 15 15 14 14 14 14 14 14 12 6 5 9 8 7 10 11 19 22 20 21 22 29 35 31 29 24 16 12 15 16 9 8 16 13 10 10 5 4 3 2 2 1 2 6 7 5 6 6 4 2 4 3 2 3 2 2 5 4 5 8 5 6 3 3 5 7 6 11 10 2 4 13 13 16 26 28 29 31 28 28 31 31 32 30
15 15 15 15 14 14 13 13 13 14 13 12 9 6 5 8 9 9 6 6 17 23 21 23 24 29 34 32 29 22 15 12 14 17 11 9 17 17 12 8 5 5 2 3 5 3 4 6 7 7 6 5 4 2 4 1 2 2 2 1 5 4 2 5 4 4 3 2 5 6 6 8 4 4 3 5 10 15 20 24 30 35 33 33 34 35 35 34
14 14 15 15 15 13 12 13 13 12 11 9 8 6 7 9 9 11 5 4 10 15 17 22 23 28 33 28 20 18 19 16 14 17 14 12 17 17 12 8 6 5 4 6 8 6 9 8 4 6 6 7 6 4 4 3 3 3 5 5 5 6 6 7 5 4 4 4 4 2 5 6 4 3 3 5 2 8 13 19 21 24 28 30 32 33 35 34
14 14 15 16 15 13 12 12 9 7 9 8 6 6 7 8 10 10 4 2 6 8 8 11 16 22 25 19 15 17 16 16 20 20 17 17 19 13 8 9 7 5 6 7 7 6 11 9 5 7 5 7 6 6 5 7 4 4 5 9 10 9 9 8 7 4 5 6 3 3 4 6 6 4 4 6 3 6 10 16 18 20 23 25 28 31 33 33
14 15 15 16 14 13 11 7 5 6 8 6 5 6 6 7 9 8 1 2 4 5 3 2 7 8 9 12 17 15 5 9 20 23 19 18 21 15 7 5 4 5 7 6 4 3 6 5 7 6 6 6 6 6 5 8 5 5 6 10 13 11 9 9 7 2 1 5 4 3 1 4 5 6 6 5 4 8 6 9 13 18 23 25 28 31 34 34
15 15 15 14 13 14 11 6 6 7 4 2 4 5 6 6 6 5 0 4 4 4 0 2 4 1 3 10 21 16 2 5 11 20 26 19 19 20 10 4 3 4 5 4 2 4 3 5 5 5 5 5 5 5 6 10 7 5 6 8 9 9 9 9 7 5 3 4 4 2 3 2 3 3 5 4 7 9 7 9 9 13 20 25 29 33 35 35
15 16 16 13 11 13 13 10 8 5 1 2 4 4 4 4 3 2 2 3 3 2 0 4 3 2 3 10 26 16 1 6 7 14 30 23 17 18 9 6 7 6 5 6 4 4 2 5 6 6 5 4 6 7 8 11 6 8 7 7 7 8 9 9 6 4 2 1 5 6 2 2 4 4 4 4 6 9 10 12 10 11 19 24 27 31 32 32
14 15 15 13 10 11 12 12 9 4 3 3 2 4 4 3 3 1 3 1 3 2 2 0 2 2 4 12 21 14 2 5 4 10 26 23 20 17 8 11 10 5 5 6 6 6 2 6 7 7 5 4 8 8 8 13 8 8 6 5 4 3 3 3 4 4 1 2 5 8 1 3 3 4 3 2 3 7 9 10 10 12 18 21 24 27 26 26
14 14 15 14 11 10 11 11 8 5 3 2 2 4 4 2 1 3 1 3 3 2 3 4 7 4 7 8 9 11 5 2 2 10 17 16 21 17 8 12 8 3 2 2 5 7 4 5 3 5 6 7 9 9 8 15 12 3 4 4 3 2 3 2 2 4 2 1 7 9 4 4 1 4 3 3 3 6 8 7 7 10 16 21 23 22 21 21
13 13 14 15 13 12 11 9 5 4 3 2 2 5 6 2 3 4 3 4 2 3 4 4 8 9 1 4 4 6 4 2 2 9 8 6 12 9 2 4 3 3 1 3 4 6 5 4 3 5 11 9 6 6 5 11 10 3 3 3 2 4 3 4 4 3 3 4 7 7 5 4 2 3 4 4 4 7 11 12 13 14 17 22 19 15 14 14
12 12 13 15 13 11 9 7 7 6 4 2 1 5 6 2 1 3 3 4 3 2 5 5 7 9 7 5 4 5 3 2 3 6 5 4 6 6 3 4 4 2 2 3 3 5 4 5 4 5 10 9 6 4 2 1 4 5 3 4 3 2 3 2 2 0 2 5 6 5 2 3 2 4 4 5 6 8 11 8 12 17 18 18 15 12 14 16
11 12 13 12 9 7 6 7 8 7 5 3 0 2 5 4 2 5 3 3 1 2 4 6 9 11 8 4 3 5 2 1 3 3 4 5 5 6 5 3 5 4 2 4 3 3 4 5 4 3 6 8 9 4 2 1 3 6 5 4 4 2 1 2 3 1 2 4 4 5 2 1 2 3 3 7 7 9 11 8 10 18 21 22 22 23 25 26
10 11 10 5 2 3 4 7 7 7 7 4 1 3 5 2 4 3 2 3 3 4 5 7 11 11 6 3 2 3 3 1 1 2 2 3 5 5 5 3 4 4 2 3 2 3 3 4 4 4 3 3 8 8 7 5 5 5 5 6 4 4 4 3 3 3 3 3 3 5 1 1 2 2 5 7 4 6 10 7 11 17 19 21 25 28 28 27
8 8 5 3 3 2 5 4 5 7 8 5 3 4 4 4 3 1 1 3 3 5 8 9 7 5 4 4 4 3 2 1 0 3 2 3 5 5 5 6 6 4 4 3 2 2 3 5 7 6 4 2 4 6 6 6 3 3 2 6 2 4 6 2 3 5 3 2 2 3 0 2 3 3 6 6 7 8 8 6 9 11 12 13 14 16 16 15
5 4 1 6 4 2 5 1 4 8 9 6 5 2 4 4 2 2 1 3 3 4 8 9 4 2 4 4 5 6 3 1 0 2 1 2 3 3 2 3 5 7 6 4 3 1 2 5 6 4 4 4 6 5 4 4 3 1 2 3 3 4 7 4 1 0 2 3 1 2 1 4 2 2 6 8 9 10 9 6 4 3 4 4 2 2 4 5
3 1 4 7 3 3 6 5 4 7 9 6 4 2 4 2 3 3 2 4 4 5 4 4 3 2 3 4 4 6 3 1 0 1 1 1 1 2 1 1 1 6 8 6 3 3 2 4 7 4 6 8 7 4 1 1 5 4 2 5 2 3 4 4 2 3 4 2 2 2 1 3 1 0 4 7 9 10 10 9 9 10 9 7 7 5 2 2
4 5 5 6 5 4 7 7 6 8 7 5 2 3 2 2 2 2 5 6 4 4 2 1 3 1 2 3 5 6 3 1 1 1 2 1 2 2 1 1 2 2 5 8 3 2 2 2 8 5 5 7 4 1 1 4 2 5 4 3 4 3 0 1 2 1 1 2 1 2 1 1 1 1 5 7 7 7 8 8 9 10 10 8 6 5 4 5
3 4 5 4 5 5 7 7 6 6 4 4 0 2 2 3 5 6 8 7 2 2 2 3 3 2 3 3 4 5 3 2 2 2 2 1 2 1 1 2 1 5 2 6 5 1 2 1 6 5 3 3 5 3 1 4 3 3 3 1 2 3 4 2 3 4 3 3 2 0 1 2 2 2 5 7 5 2 4 6 7 6 7 7 6 4 4 5
2 3 4 4 6 6 6 5 4 4 3 2 3 3 2 2 5 8 10 7 3 2 2 3 3 3 4 4 3 3 2 2 3 2 2 2 2 2 1 2 2 2 4 4 3 1 2 2 4 6 5 3 2 1 2 3 2 3 2 1 1 2 3 2 1 2 4 4 3 3 1 3 2 2 5 6 4 2 4 4 4 5 6 7 6 6 7 7
4 3 3 5 7 6 6 3 2 2 2 1 2 2 3 3 4 8 10 8 5 5 6 5 4 4 4 3 3 3 2 0 2 1 1 2 2 2 5 6 5 3 2 5 3 1 1 2 2 4 4 2 3 3 1 2 4 5 3 3 3 2 4 3 1 1 3 4 4 5 3 4 2 2 3 3 1 1 4 5 5 6 7 7 5 4 5 7
4 3 2 6 8 7 5 2 1 1 2 1 2 3 5 5 4 5 7 7 4 5 6 5 4 4 4 3 3 3 2 2 0 1 1 3 3 2 4 7 7 4 3 2 1 1 2 4 2 2 2 3 7 5 3 2 2 6 3 2 3 3 3 5 3 3 2 3 2 4 2 3 2 2 2 4 5 6 8 8 8 10 9 8 7 3 3 6
4 5 4 6 7 7 3 1 3 2 1 3 4 4 5 4 3 4 5 3 2 2 2 3 2 1 1 3 3 2 1 1 1 1 1 1 1 4 5 2 5 4 4 2 2 1 1 3 2 2 3 4 7 7 5 4 3 5 3 2 2 1 2 5 5 3 4 3 2 4 2 2 1 3 3 6 8 10 12 11 11 12 12 11 11 9 7 8
7 8 6 6 8 8 3 1 1 2 3 4 3 4 6 3 2 3 4 3 2 2 1 2 2 2 2 2 2 2 0 2 2 2 2 1 3 7 5 3 4 3 2 2 2 3 1 1 2 1 2 4 5 6 6 5 3 3 2 1 2 3 4 2 1 3 3 3 3 5 2 3 1 2 3 6 8 10 12 13 12 12 14 14 15 14 12 11
7 6 5 6 8 6 2 2 3 2 3 3 3 4 5 4 5 5 4 4 4 2 1 3 4 3 3 2 2 4 3 2 1 2 3 2 2 7 9 7 6 4 3 3 4 6 4 1 2 3 3 3 2 2 3 3 3 3 3 3 2 5 4 1 2 4 2 2 3 4 3 2 3 4 5 6 7 8 11 13 13 12 14 16 18 18 16 15
5 3 2 3 2 1 1 1 1 2 2 0 2 3 3 3 6 8 4 2 5 5 2 3 4 2 3 4 4 4 5 4 2 3 4 4 2 4 9 10 9 7 7 8 7 5 4 3 2 3 4 5 5 4 4 2 0 2 4 6 4 3 4 4 4 2 4 3 3 1 3 6 7 6 7 6 7 7 8 10 13 13 15 20 22 21 19 18
3 1 2 2 0 1 2 1 1 1 1 1 2 2 4 3 5 6 3 1 6 8 2 3 5 3 2 3 3 3 5 5 4 4 3 4 3 4 8 9 8 7 6 7 6 4 4 3 3 5 4 1 1 3 4 1 2 2 4 7 8 6 4 7 5 2 5 5 1 2 4 8 7 7 7 6 6 7 7 10 13 14 17 22 24 24 23 22
2 1 2 3 1 1 1 2 1 2 1 2 2 1 3 4 4 3 3 3 7 8 3 4 7 5 3 3 3 2 5 4 4 4 3 4 3 4 6 6 6 8 5 5 6 4 5 2 1 3 5 6 6 6 5 4 4 4 7 7 9 10 5 6 4 3 5 4 4 6 7 6 5 6 6 6 7 8 10 12 14 16 19 23 25 26 26 25
4 3 2 3 2 3 2 1 2 4 3 2 1 1 2 5 5 3 3 3 5 7 4 3 5 6 6 4 4 3 3 2 2 4 2 4 3 2 3 3 4 7 5 4 4 3 4 2 1 3 4 8 9 7 8 7 4 6 8 8 9 9 6 6 4 4 8 7 6 11 10 6 5 5 6 8 11 13 16 18 20 20 21 24 28 28 27 27
5 4 2 4 4 1 1 2 2 3 3 2 2 1 1 2 4 4 4 1 2 5 4 3 5 5 3 4 4 3 2 3 2 3 2 3 2 1 2 2 3 5 4 3 2 2 3 1 1 2 5 5 7 6 8 8 5 6 8 10 10 9 7 6 4 6 9 9 8 10 9 5 4 5 7 11 15 18 18 17 18 19 20 25 30 29 29 29
6 5 4 5 3 4 4 3 2 3 2 2 1 2 2 1 2 3 3 2 1 1 2 3 5 4 2 4 4 1 4 4 6 9 8 5 3 3 2 2 3 5 4 2 2 2 3 2 0 3 4 2 5 5 6 7 5 5 8 12 12 7 4 3 2 2 4 9 11 9 5 3 3 6 8 11 15 18 17 14 16 17 19 25 30 31 31 32
5 5 4 5 2 5 4 3 3 3 2 2 2 2 2 3 5 3 1 4 3 2 3 3 2 3 3 3 4 7 11 11 11 14 16 13 9 9 11 12 8 4 2 1 2 2 3 4 2 3 3 1 2 3 4 4 3 2 5 8 8 5 2 2 4 5 3 7 9 6 4 5 6 7 9 10 12 15 16 17 19 19 19 23 28 29 31 33
Wind_Direction
341 340 339 339 341 339 340 341 340 342 340 335 329 323 320 315 309 304 297 292 284 281 284 285 286 291 299 302 304 307 309 310 312 307 296 293 280 260 262 253 234 227 220 209 206 207 205 203 196 191 192 190 197 196 192 204 197 179 128 139 228 235 221 194 191 211 234 290 311 318 331 346 321 324 64 98 110 110 116 94 131 179 199 176 174 167 166 165
336 336 334 335 335 333 335 333 332 334 334 336 334 327 322 318 316 311 307 301 292 285 281 282 284 287 295 299 303 307 309 312 312 303 297 300 266 251 251 255 238 226 224 217 213 209 208 205 193 190 189 180 186 187 187 204 193 184 128 153 228 222 223 205 219 262 286 294 305 306 312 334 323 301 294 63 82 99 100 81 107 122 130 154 160 161 165 168
332 331 330 330 330 329 329 327 327 326 326 328 328 328 325 319 318 315 313 307 300 293 285 283 283 287 293 295 301 307 313 315 313 303 297 11 325 262 242 245 240 228 224 220 219 212 213 204 190 185 181 177 181 177 181 189 185 194 174 201 239 224 263 271 269 278 289 289 294 297 302 321 319 298 244 185 115 69 134 133 120 124 138 151 156 161 166 169
329 327 326 326 324 324 322 323 323 321 322 321 321 322 321 320 318 315 315 312 307 301 293 288 285 288 289 293 301 307 317 320 316 130 98 38 20 345 238 235 231 221 211 211 209 203 204 191 183 181 177 182 189 185 199 196 185 191 182 218 242 226 278 271 277 283 287 286 278 287 300 307 313 306 215 168 118 309 226 180 165 156 156 156 160 165 168 171
326 325 324 323 321 320 319 319 317 317 316 316 317 316 315 318 317 316 316 313 311 307 303 298 290 287 287 292 298 305 322 332 62 120 61 32 33 18 262 230 220 210 208 210 199 189 189 175 170 177 179 181 186 191 228 211 203 208 210 240 252 253 269 276 290 289 287 289 289 293 297 292 307 312 195 174 157 225 216 196 182 174 168 165 169 169 171 174
323 323 322 320 319 318 316 315 313 312 312 312 314 312 312 312 314 317 315 314 313 310 309 305 298 291 288 291 295 304 317 290 220 286 291 336 4 19 19 221 211 208 210 207 196 185 181 172 169 177 175 167 198 200 235 223 210 245 261 253 260 254 251 279 288 289 288 290 292 284 286 291 308 288 204 195 211 225 214 202 186 178 174 171 173 173 176 179
322 321 319 318 317 315 313 312 310 309 308 308 309 308 308 308 312 314 314 314 313 313 311 308 306 297 292 293 295 301 290 270 284 284 261 283 317 51 74 198 212 219 215 205 199 186 180 178 174 171 149 150 218 212 248 257 219 220 265 263 269 265 259 276 281 284 285 281 280 281 288 291 279 253 218 210 226 246 237 203 181 173 171 172 174 177 180 181
322 320 318 318 315 313 311 309 307 306 305 304 305 304 304 304 307 310 312 311 310 312 311 310 310 302 298 296 298 301 287 279 271 234 245 213 172 92 59 197 218 229 223 211 204 189 184 183 179 171 139 198 209 202 245 265 249 217 245 261 271 272 269 277 278 280 282 280 283 284 281 275 269 240 202 222 234 239 216 190 173 170 171 173 177 180 182 183
322 319 319 319 315 314 310 307 305 304 304 302 302 301 301 301 302 306 307 306 308 309 309 312 311 305 302 296 299 304 290 281 227 228 219 179 174 209 265 257 249 242 231 215 204 192 189 187 184 176 156 222 220 240 236 223 254 215 226 250 263 271 273 277 277 276 279 282 284 284 268 273 273 198 179 240 217 189 178 174 169 171 172 177 182 182 179 172
319 319 320 319 317 315 310 308 305 305 304 302 302 301 300 299 299 301 302 303 303 304 307 308 309 308 302 298 300 296 284 262 203 215 187 180 190 216 262 278 278 267 244 219 204 199 198 192 188 183 188 241 224 243 233 194 241 245 241 254 260 267 272 273 272 273 278 282 277 264 257 274 273 180 201 204 178 171 164 162 168 174 177 184 185 177 168 157
317 318 321 320 318 315 311 309 307 306 303 303 304 302 301 299 298 297 297 299 298 302 304 302 306 304 301 295 266 245 272 238 212 221 194 188 200 236 266 277 283 282 261 234 216 209 201 193 188 180 198 255 248 263 246 220 243 263 271 280 278 276 275 268 264 269 272 278 270 247 246 278 283 203 204 172 171 172 163 159 168 177 181 186 181 166 160 172
317 318 319 321 320 316 311 307 306 305 304 304 304 302 301 299 297 295 295 296 296 299 299 300 302 298 300 286 263 255 279 253 231 231 205 191 211 241 259 263 268 278 280 265 239 214 199 193 190 187 216 253 323 317 285 271 272 273 276 292 295 309 297 261 250 256 244 249 266 240 256 293 291 253 210 164 166 165 160 160 167 177 181 182 173 166 167 179
316 316 317 318 319 316 310 306 305 304 303 304 304 302 301 298 296 295 293 292 293 296 296 298 296 295 295 275 267 272 279 269 252 238 210 196 220 231 242 248 254 263 273 278 266 221 201 196 199 212 246 274 292 291 293 297 297 277 257 220 300 327 310 262 243 244 220 247 256 196 227 286 257 264 208 158 163 156 152 160 167 178 180 173 170 173 174 183
316 315 315 316 317 314 309 305 304 303 303 305 304 302 300 296 294 293 293 291 291 293 294 295 293 293 281 271 282 295 280 267 250 239 219 210 225 224 228 237 245 248 251 263 274 234 210 206 216 236 265 271 269 283 299 304 305 294 285 293 304 288 280 289 295 238 213 270 234 167 202 259 251 265 191 162 167 158 154 161 170 180 176 163 164 170 173 186
315 315 315 315 314 311 307 303 302 302 303 304 303 303 299 294 293 292 291 289 290 292 293 292 289 289 284 283 292 298 281 265 250 242 225 220 226 219 219 228 236 237 240 247 254 244 223 217 225 244 269 270 267 278 316 332 347 14 279 290 315 207 265 304 303 227 216 268 194 156 225 262 255 266 185 167 171 163 156 161 176 182 171 154 153 160 169 178
315 316 314 314 314 311 306 303 302 301 302 303 303 304 299 294 292 290 288 288 290 291 289 285 280 285 292 292 297 308 302 284 269 256 224 216 223 222 217 228 235 230 236 241 236 237 231 230 240 250 260 265 241 202 346 334 324 5 199 253 285 257 295 320 307 265 221 248 210 168 210 252 264 271 178 172 175 166 155 163 180 179 165 153 151 156 163 166
316 316 315 316 315 311 307 303 302 302 302 303 304 305 301 297 294 289 287 285 285 285 280 270 274 289 274 269 282 291 316 339 322 297 228 212 220 226 216 223 230 229 237 245 253 251 243 239 243 251 252 243 144 129 45 276 268 322 358 253 259 254 278 302 305 310 323 268 264 228 220 233 266 284 166 176 179 165 156 169 179 173 159 155 157 162 165 167
315 315 316 317 315 314 309 303 304 303 301 303 309 312 307 306 304 294 287 282 278 280 272 250 240 310 271 257 281 281 300 347 321 313 281 220 212 216 215 218 228 237 240 248 253 244 238 235 213 246 271 203 135 122 183 227 198 204 269 250 282 284 266 263 265 297 347 351 264 281 282 256 270 276 164 180 184 169 167 176 175 164 154 155 163 170 173 179
313 314 315 315 315 314 308 305 305 302 300 304 314 317 319 328 322 308 318 302 233 188 256 233 202 223 267 270 285 285 284 294 297 299 296 236 208 207 215 222 231 236 220 213 247 214 204 218 212 249 249 207 191 165 189 203 164 183 190 179 245 285 274 262 248 258 306 315 281 274 268 266 271 267 168 183 187 171 172 174 163 154 153 157 166 174 178 185
311 312 313 313 313 312 309 306 302 300 302 306 319 327 345 357 339 326 343 308 264 256 265 257 247 253 266 274 278 288 291 289 288 282 290 258 217 203 212 223 229 228 184 156 216 203 175 200 240 229 201 175 204 203 191 197 209 267 238 227 249 264 276 275 270 271 287 299 279 262 262 271 265 266 192 179 178 160 169 168 157 155 156 163 171 180 183 186
309 309 310 311 312 313 311 306 299 298 302 308 323 338 13 14 2 322 326 306 281 275 269 267 266 263 266 270 272 284 294 295 281 261 267 255 216 197 207 214 208 226 219 173 193 238 154 208 238 211 179 187 209 203 183 203 260 256 255 283 280 251 266 275 276 282 283 223 267 275 284 274 262 274 194 171 166 162 175 168 160 162 162 170 177 184 186 190
308 307 309 310 313 316 312 306 297 294 298 306 316 332 10 7 2 327 313 297 288 285 277 272 266 263 265 265 265 271 276 283 272 251 244 218 203 194 193 189 175 218 239 137 163 294 221 233 249 214 186 198 233 186 150 200 227 225 242 290 280 262 282 286 284 286 277 148 260 285 279 269 272 303 150 172 176 183 182 175 169 166 166 174 181 184 186 189
308 307 308 309 315 319 315 306 295 291 295 300 304 317 338 337 349 337 298 266 287 285 274 264 255 257 261 260 260 258 244 245 255 245 234 198 194 194 183 172 175 196 193 163 186 212 238 248 240 215 185 172 252 247 140 191 255 212 201 210 265 268 284 281 293 305 295 237 263 288 282 279 312 85 136 199 194 185 178 174 173 171 174 179 184 185 186 185
308 307 307 310 317 319 318 308 295 291 291 297 301 298 310 317 340 345 304 244 284 281 270 263 254 252 256 257 253 237 224 223 232 235 226 199 191 191 190 174 158 184 206 193 191 209 239 244 185 159 163 170 225 249 172 195 260 238 205 196 241 258 236 241 281 315 320 307 270 317 326 308 337 74 38 345 208 160 150 157 168 177 179 180 182 184 185 184
309 307 307 313 318 320 322 311 296 292 290 296 295 279 297 313 332 343 323 271 287 278 286 267 246 247 249 248 235 220 217 219 223 224 217 207 196 184 188 185 166 194 210 189 183 217 246 241 146 127 158 174 204 238 197 180 225 270 224 202 217 241 245 246 279 323 357 323 289 56 359 307 327 14 19 353 60 119 141 153 164 176 176 177 181 183 185 185
310 308 310 317 319 322 325 316 305 306 296 284 264 267 294 304 323 333 333 34 311 269 326 260 226 242 237 219 205 192 191 234 227 218 210 212 206 189 179 183 172 196 194 174 174 221 243 206 152 158 176 175 198 237 211 169 181 265 235 204 208 223 239 246 256 264 332 283 268 81 113 259 313 360 357 345 100 122 144 152 162 172 172 178 183 183 185 186
313 310 314 321 323 323 324 322 320 313 297 250 245 259 285 291 317 321 32 27 316 254 14 196 201 297 271 203 177 160 128 228 212 208 203 206 205 196 195 188 170 197 176 132 202 236 202 172 167 174 169 173 204 238 208 162 152 248 225 185 198 213 222 226 221 210 228 272 297 28 123 185 296 324 349 15 121 132 145 154 165 174 176 180 182 183 185 185
315 312 315 322 322 319 317 319 326 322 250 262 267 245 261 281 293 293 91 39 288 257 85 200 210 328 313 183 172 168 159 161 158 204 201 200 199 191 195 197 182 198 172 134 213 252 162 186 195 171 165 183 212 228 192 154 163 244 218 173 201 210 209 212 190 191 246 352 311 309 86 122 281 286 346 24 129 148 167 175 177 180 183 184 184 186 187 188
316 314 314 316 315 309 307 312 320 312 262 279 278 226 229 255 270 66 84 21 274 302 1 183 317 310 140 157 183 201 247 155 156 191 190 196 202 193 199 209 191 187 184 161 213 248 234 213 193 151 166 206 228 236 173 157 199 235 192 169 213 198 179 187 138 139 26 47 261 272 234 122 267 285 335 17 155 171 182 185 187 188 190 191 191 193 194 193
313 313 310 309 310 302 300 309 307 281 260 288 274 217 199 212 35 70 122 257 267 309 2 34 358 349 138 146 209 229 244 269 103 152 171 188 196 196 205 205 187 130 183 229 237 249 269 249 210 154 197 216 232 244 178 179 205 192 136 183 232 345 44 57 83 101 82 286 255 252 215 135 283 280 227 187 205 189 178 179 193 200 201 202 202 201 199 198
310 310 305 303 306 302 301 308 290 252 250 282 247 178 161 128 56 98 202 264 288 316 356 22 2 359 104 190 238 234 235 286 95 131 151 166 180 194 191 182 171 77 7 304 273 287 312 281 265 221 227 223 221 249 207 192 202 147 107 167 211 305 12 37 2 54 108 248 265 254 213 138 112 259 232 236 258 207 185 181 184 193 202 204 203 202 202 203
312 306 298 298 300 301 302 286 257 242 230 215 170 169 153 74 25 188 244 319 342 323 351 353 342 339 304 256 232 229 224 211 178 141 147 147 161 192 192 178 178 121 299 256 258 311 304 250 265 265 246 221 190 250 293 168 164 144 115 99 113 297 350 7 303 82 181 239 266 277 220 139 181 239 242 273 277 220 206 210 193 187 188 190 190 192 197 204
313 300 294 294 296 300 291 268 252 228 198 178 140 149 112 86 228 230 276 326 322 308 348 342 325 321 307 292 233 210 191 215 221 171 153 149 157 199 222 210 166 156 221 208 208 284 293 291 293 297 271 218 176 180 223 187 153 156 157 135 134 136 77 297 271 229 243 230 262 296 286 182 259 272 280 291 279 211 205 238 208 186 182 184 189 192 196 201
310 300 298 288 289 314 295 271 249 207 184 179 105 78 97 139 234 252 303 265 276 326 352 343 322 320 323 311 282 182 149 313 260 148 126 127 153 201 233 234 175 148 165 171 176 202 215 299 266 206 257 217 178 185 183 165 157 176 166 137 143 151 153 228 224 184 233 229 298 323 337 157 217 286 302 303 311 156 165 190 192 188 192 192 193 195 196 201
310 308 306 182 162 339 333 286 227 190 184 180 86 79 137 207 250 247 282 278 313 343 338 331 318 322 330 310 323 13 98 181 76 98 113 152 169 196 205 211 198 149 132 173 219 181 175 250 253 235 253 228 204 208 162 124 138 217 144 109 142 182 157 185 196 174 185 165 356 341 266 207 210 279 330 3 33 61 95 131 164 183 201 197 195 198 200 206
321 323 186 161 161 28 29 45 185 179 183 165 85 84 197 217 227 189 277 326 334 334 332 332 337 348 331 331 333 346 22 132 132 75 107 193 182 202 211 221 202 173 153 165 213 174 142 254 274 312 303 251 234 227 166 156 191 204 126 155 206 170 134 125 191 76 68 125 330 340 272 310 329 341 357 31 37 28 36 46 77 121 193 183 147 179 206 223
2 30 159 166 160 82 70 74 122 167 178 143 98 199 220 227 211 199 338 341 317 321 354 352 328 304 331 349 320 312 339 19 310 112 232 269 205 211 241 316 203 182 177 165 207 220 165 263 284 308 294 278 259 228 210 167 144 126 189 202 172 75 92 110 136 14 38 143 269 332 214 300 12 32 345 23 32 20 19 22 28 26 17 21 37 58 110 151
59 95 140 168 171 112 83 83 114 153 157 111 83 231 212 248 256 306 333 330 319 326 14 225 266 282 1 343 298 295 299 246 248 169 183 277 269 219 161 168 20 13 186 162 164 262 156 266 291 272 249 289 323 127 297 333 75 132 175 173 110 100 175 108 134 129 98 157 289 342 278 257 168 237 330 359 8 11 22 34 41 32 25 33 48 70 96 100
61 96 106 146 169 129 94 100 122 132 115 92 173 248 214 248 276 300 312 311 293 292 293 224 229 319 337 293 261 287 291 211 201 176 161 185 242 225 131 172 72 17 20 134 145 238 101 158 283 281 244 303 357 61 194 299 342 81 95 58 56 129 163 173 157 153 148 158 172 30 318 275 222 273 323 320 309 5 57 56 62 61 65 84 103 130 141 124
117 114 96 142 170 156 131 119 109 96 82 128 187 230 246 250 272 287 301 302 267 245 263 240 234 270 288 282 263 280 289 168 166 186 193 181 203 217 207 190 122 55 12 48 105 146 55 109 251 292 325 354 340 280 203 208 177 108 116 216 343 76 129 153 151 119 127 146 164 144 218 264 249 304 316 303 274 190 114 91 89 86 85 102 136 160 158 150
125 104 101 157 171 175 163 136 61 77 93 197 200 230 270 279 276 291 307 303 270 242 242 247 254 241 250 289 291 276 305 347 155 148 186 198 189 216 207 184 162 146 53 31 40 83 66 129 198 293 341 358 266 271 302 228 172 143 155 182 157 130 126 132 257 293 108 125 162 151 180 266 299 350 328 330 307 144 105 98 83 70 78 98 122 151 160 152
114 73 104 156 175 198 185 135 344 59 137 240 277 271 285 293 283 297 314 309 275 246 239 245 256 235 226 248 254 255 303 327 242 155 203 211 192 239 229 180 159 144 119 82 326 213 129 106 103 281 275 260 275 302 355 316 134 114 112 125 126 118 114 133 192 235 106 98 139 112 109 268 313 19 37 63 69 74 83 93 86 70 69 79 89 111 167 151
95 89 113 149 179 202 199 19 336 334 228 282 303 295 297 300 283 306 317 302 283 280 263 263 280 284 229 241 254 264 281 9 318 253 215 241 275 304 291 171 124 98 107 120 286 273 83 72 67 293 297 307 305 319 337 338 55 79 53 53 102 95 112 146 178 178 133 147 140 82 64 258 307 32 62 85 84 75 71 79 90 85 79 83 93 107 118 120
102 99 118 153 184 203 216 254 287 296 283 305 335 324 318 304 268 302 304 278 291 317 316 288 302 338 304 271 288 304 22 76 357 343 50 72 348 342 346 92 86 42 85 170 200 167 152 28 106 99 352 350 337 334 334 339 20 56 353 354 107 86 74 119 148 78 109 185 147 119 174 243 137 71 67 79 83 77 71 74 83 87 91 96 101 104 101 101
110 94 113 147 180 205 215 193 189 203 258 313 353 333 329 316 302 309 285 270 299 295 253 288 293 305 311 331 360 343 7 71 38 4 30 31 357 2 20 70 93 64 65 106 129 137 139 131 143 150 163 178 218 254 264 300 332 344 336 348 60 89 86 152 125 86 130 203 93 117 181 189 133 108 85 81 83 84 84 85 84 82 85 89 90 93 94 95
116 93 118 135 162 168 120 199 190 155 201 58 29 338 335 318 314 323 306 279 327 321 288 304 315 324 352 14 24 359 358 9 12 48 35 2 339 350 14 48 80 84 84 79 79 106 112 79 83 111 142 170 193 233 243 224 57 349 335 340 358 70 99 103 86 102 173 138 49 284 177 139 139 129 107 96 91 90 86 83 82 78 78 83 85 87 90 92
107 119 168 149 327 38 73 335 359 111 218 141 89 339 336 321 310 331 354 352 336 333 334 4 8 31 1 1 46 11 347 354 9 35 31 355 327 326 2 31 48 47 71 66 36 60 100 67 47 65 60 85 184 284 304 67 109 48 8 350 341 347 55 84 83 139 150 116 53 253 144 125 137 128 108 93 80 77 60 59 70 72 75 83 85 85 85 86
102 128 148 127 169 233 62 352 17 75 67 96 103 326 343 352 342 346 336 324 340 350 16 14 3 15 346 338 106 44 349 7 12 357 6 7 348 340 355 9 17 22 54 56 23 66 109 81 87 98 53 22 19 10 19 62 86 51 36 21 357 348 21 90 117 173 138 128 170 158 123 109 105 86 76 67 66 70 64 64 74 75 76 83 85 83 82 82
101 109 117 102 132 189 185 341 33 68 63 70 37 344 16 5 353 321 300 326 352 352 28 58 342 344 351 2 94 84 6 47 22 319 326 10 355 355 5 344 354 22 53 64 33 67 99 73 168 132 69 28 17 22 38 45 55 51 36 24 17 7 21 77 112 128 105 104 131 125 107 79 56 61 72 78 81 86 84 80 80 78 77 83 85 83 81 80
105 106 120 103 97 122 339 359 41 65 29 4 6 335 358 8 347 315 304 11 25 335 6 43 328 319 357 26 68 107 179 151 153 264 293 18 2 359 25 317 306 354 29 66 29 26 69 108 254 82 70 23 2 24 37 22 25 55 35 13 15 17 22 49 78 94 90 90 98 102 99 79 55 70 87 90 91 90 83 73 71 74 80 86 87 84 83 81
109 101 121 123 76 355 350 4 41 76 22 2 11 295 291 289 330 330 298 278 152 288 312 319 313 316 8 32 50 119 245 210 199 234 250 243 249 301 327 271 287 333 1 44 23 15 73 113 8 68 88 3 341 9 14 2 11 44 26 4 358 3 16 26 26 38 104 127 123 111 114 132 111 100 90 86 87 83 72 61 63 67 74 82 85 84 83 81
121 111 124 129 82 351 5 24 29 63 30 309 247 263 289 301 325 5 6 292 306 354 322 282 288 345 355 1 355 323 304 292 274 272 271 261 260 276 275 267 268 272 242 111 57 34 100 122 126 93 103 49 340 357 357 10 32 26 6 348 331 318 330 6 13 4 31 127 134 135 141 133 126 116 96 80 79 78 75 77 80 78 75 77 81 81 81 81
Height
1504 1504 1503 1502 1501 1500 1499 1499 1498 1497 1496 1495 1494 1493 1492 1491 1490 1490 1489 1488 1488 1487 1487 1486 1486 1485 1484 1483 1482 1480 1479 1477 1476 1475 1473 1471 1472 1472 1471 1471 1473 1474 1474 1475 1476 1477 1478 1479 1480 1481 1482 1484 1485 1486 1488 1489 1491 1493 1495 1499 1499 1494 1490 1486 1482 1481 1479 1475 1473 1471 1472 1473 1471 1468 1466 1464 1463 1462 1464 1466 1466 1467 1467 1468 1469 1471 1473 1477
1504 1503 1503 1502 1501 1500 1499 1498 1497 1496 1495 1494 1493 1492 1492 1491 1490 1489 1488 1488 1487 1486 1486 1485 1485 1485 1484 1483 1481 1479 1478 1476 1474 1472 1471 1470 1470 1470 1470 1470 1471 1472 1473 1474 1475 1476 1477 1478 1479 1480 1481 1483 1484 1486 1487 1488 1489 1491 1493 1497 1494 1488 1484 1481 1480 1478 1477 1476 1474 1472 1472 1473 1472 1469 1467 1466 1466 1465 1466 1467 1467 1467 1468 1469 1470 1473 1474 1476
1504 1503 1502 1501 1500 1500 1499 1498 1497 1496 1495 1494 1493 1492 1491 1490 1489 1488 1488 1487 1486 1485 1485 1484 1484 1484 1483 1482 1480 1479 1477 1475 1472 1470 1470 1470 1469 1469 1469 1469 1471 1472 1473 1474 1475 1476 1477 1478 1478 1479 1481 1482 1483 1485 1486 1486 1488 1488 1491 1495 1488 1481 1480 1479 1479 1477 1476 1476 1474 1473 1471 1471 1471 1470 1468 1467 1467 1466 1465 1466 1467 1468 1469 1470 1471 1472 1473 1475
1503 1503 1502 1501 1500 1499 1498 1497 1496 1496 1495 1494 1492 1492 1491 1490 1489 1488 1487 1486 1485 1485 1484 1484 1483 1483 1482 1481 1480 1479 1477 1474 1469 1469 1470 1469 1469 1468 1468 1469 1470 1471 1472 1474 1474 1476 1477 1478 1478 1479 1481 1482 1483 1484 1485 1484 1486 1486 1488 1488 1481 1480 1480 1477 1478 1477 1475 1475 1474 1473 1471 1470 1469 1469 1468 1467 1468 1468 1465 1463 1463 1465 1466 1468 1471 1472 1472 1473
1503 1502 1501 1501 1500 1499 1498 1497 1496 1495 1494 1493 1492 1491 1490 1489 1488 1487 1487 1486 1485 1484 1483 1483 1482 1482 1481 1480 1479 1478 1478 1474 1469 1469 1470 1469 1469 1469 1468 1469 1470 1471 1472 1473 1474 1475 1476 1477 1478 1479 1480 1481 1483 1484 1483 1483 1484 1485 1484 1482 1479 1481 1479 1475 1477 1476 1474 1473 1472 1472 1470 1468 1468 1468 1468 1466 1467 1465 1462 1461 1461 1462 1463 1465 1468 1470 1471 1471
1502 1501 1500 1500 1499 1498 1497 1496 1495 1494 1493 1492 1491 1491 1490 1489 1488 1487 1486 1485 1484 1483 1482 1482 1481 1481 1480 1479 1479 1478 1479 1475 1469 1469 1469 1469 1470 1469 1469 1469 1470 1471 1472 1473 1473 1474 1475 1476 1477 1478 1479 1480 1482 1482 1482 1482 1484 1485 1483 1479 1478 1480 1478 1476 1476 1475 1473 1473 1472 1470 1468 1467 1468 1469 1467 1465 1464 1462 1461 1461 1462 1463 1464 1464 1465 1467 1469 1469
1501 1500 1500 1499 1498 1497 1496 1495 1494 1493 1493 1492 1491 1490 1489 1488 1487 1486 1485 1485 1484 1483 1482 1481 1481 1480 1479 1478 1477 1477 1477 1473 1468 1469 1468 1469 1469 1469 1469 1469 1470 1471 1471 1472 1472 1473 1474 1475 1476 1477 1479 1481 1481 1481 1481 1482 1483 1484 1482 1478 1477 1478 1477 1475 1475 1473 1472 1472 1470 1469 1468 1466 1467 1469 1467 1465 1462 1462 1462 1462 1463 1465 1467 1467 1467 1467 1467 1467
1501 1500 1499 1498 1497 1496 1495 1495 1494 1493 1492 1491 1490 1489 1488 1487 1487 1486 1485 1484 1483 1482 1481 1480 1480 1479 1478 1478 1477 1476 1474 1470 1468 1468 1468 1468 1469 1469 1469 1469 1470 1471 1471 1472 1472 1472 1473 1475 1476 1477 1479 1480 1480 1480 1481 1482 1482 1482 1481 1478 1476 1476 1474 1473 1473 1472 1471 1470 1468 1468 1468 1464 1465 1468 1466 1464 1462 1462 1462 1463 1464 1466 1468 1469 1468 1468 1469 1471
1500 1499 1498 1498 1496 1496 1495 1494 1493 1492 1491 1490 1489 1488 1487 1486 1486 1485 1484 1483 1482 1481 1480 1480 1479 1478 1478 1477 1476 1475 1470 1467 1467 1467 1467 1468 1468 1469 1469 1469 1470 1471 1471 1471 1472 1473 1473 1474 1475 1476 1478 1479 1480 1479 1480 1482 1482 1479 1478 1477 1476 1475 1473 1473 1472 1470 1470 1468 1467 1468 1466 1462 1462 1466 1466 1464 1463 1462 1462 1463 1465 1466 1468 1469 1469 1470 1472 1475
1499 1498 1497 1497 1496 1495 1494 1493 1492 1491 1490 1489 1488 1487 1486 1485 1485 1484 1483 1482 1481 1480 1480 1479 1478 1477 1477 1475 1476 1475 1468 1466 1467 1466 1466 1467 1467 1468 1469 1470 1470 1470 1471 1471 1471 1471 1471 1473 1475 1476 1478 1478 1478 1478 1478 1481 1479 1476 1476 1476 1475 1474 1472 1471 1470 1469 1468 1467 1466 1467 1464 1460 1460 1464 1466 1464 1464 1463 1462 1464 1465 1466 1467 1468 1470 1473 1474 1474
1498 1497 1496 1495 1495 1494 1492 1491 1490 1490 1489 1487 1487 1486 1485 1484 1483 1483 1482 1481 1480 1480 1479 1478 1477 1476 1475 1474 1476 1473 1467 1466 1466 1465 1466 1466 1467 1468 1469 1470 1470 1470 1470 1470 1470 1470 1472 1474 1475 1477 1478 1478 1478 1477 1476 1477 1476 1475 1475 1474 1473 1472 1471 1470 1469 1467 1467 1466 1464 1464 1462 1459 1460 1463 1461 1461 1462 1463 1462 1464 1466 1467 1468 1469 1473 1475 1474 1474
1498 1497 1495 1494 1493 1492 1491 1490 1489 1488 1487 1486 1486 1485 1484 1483 1482 1481 1481 1480 1479 1478 1478 1477 1476 1475 1474 1473 1472 1469 1465 1466 1465 1464 1465 1465 1466 1467 1468 1469 1469 1470 1470 1470 1470 1470 1472 1474 1476 1476 1476 1477 1477 1477 1475 1474 1475 1474 1474 1474 1472 1470 1469 1467 1466 1466 1466 1465 1461 1462 1465 1463 1461 1461 1458 1458 1461 1462 1463 1465 1467 1468 1470 1472 1474 1475 1475 1476
1497 1496 1494 1493 1492 1491 1490 1489 1488 1487 1486 1485 1484 1483 1483 1481 1480 1480 1479 1478 1477 1477 1476 1476 1475 1474 1474 1470 1465 1465 1465 1464 1463 1463 1464 1465 1466 1466 1467 1467 1468 1469 1469 1469 1470 1471 1473 1474 1475 1476 1476 1477 1477 1476 1474 1473 1474 1473 1473 1474 1473 1472 1469 1465 1464 1464 1464 1463 1459 1463 1471 1468 1461 1459 1458 1459 1461 1462 1464 1466 1468 1469 1470 1473 1474 1475 1476 1478
1495 1494 1493 1492 1491 1489 1488 1487 1486 1485 1484 1484 1483 1482 1481 1480 1479 1478 1478 1477 1476 1476 1475 1474 1473 1473 1472 1465 1460 1463 1462 1461 1461 1461 1463 1465 1465 1466 1466 1466 1467 1468 1468 1469 1470 1471 1473 1474 1475 1475 1476 1476 1475 1474 1474 1473 1473 1472 1473 1474 1476 1478 1471 1463 1463 1464 1463 1461 1457 1462 1471 1467 1459 1457 1457 1459 1460 1461 1464 1467 1469 1469 1470 1472 1473 1475 1477 1478
1494 1493 1492 1491 1489 1488 1487 1486 1485 1484 1483 1482 1481 1480 1479 1478 1477 1476 1476 1475 1474 1474 1473 1473 1472 1472 1470 1462 1458 1460 1458 1458 1458 1460 1463 1464 1464 1465 1466 1466 1467 1467 1468 1468 1469 1471 1473 1474 1475 1475 1475 1474 1474 1475 1475 1475 1473 1474 1477 1477 1477 1479 1473 1465 1463 1463 1462 1460 1457 1462 1470 1466 1459 1457 1457 1459 1460 1461 1464 1467 1468 1468 1470 1472 1473 1475 1477 1478
1493 1491 1490 1489 1488 1487 1485 1484 1483 1482 1482 1481 1480 1479 1477 1476 1475 1474 1473 1473 1473 1473 1472 1472 1470 1471 1469 1461 1457 1458 1457 1457 1457 1459 1461 1462 1464 1465 1465 1466 1466 1467 1467 1468 1469 1471 1473 1474 1474 1474 1473 1473 1473 1474 1476 1478 1476 1476 1480 1479 1478 1478 1476 1470 1463 1460 1461 1460 1458 1461 1465 1463 1458 1456 1457 1459 1460 1461 1464 1465 1466 1467 1469 1471 1473 1475 1476 1478
1491 1490 1489 1488 1486 1485 1484 1483 1482 1481 1480 1479 1478 1477 1476 1474 1473 1472 1471 1471 1471 1471 1471 1470 1470 1471 1466 1458 1456 1457 1457 1457 1457 1459 1459 1461 1463 1464 1465 1466 1466 1467 1467 1468 1469 1470 1472 1473 1473 1473 1472 1472 1473 1474 1480 1484 1482 1481 1482 1481 1479 1478 1477 1473 1466 1461 1460 1461 1460 1460 1461 1461 1457 1455 1458 1459 1459 1462 1463 1464 1464 1466 1469 1470 1473 1474 1475 1477
1490 1488 1487 1486 1485 1484 1483 1482 1481 1480 1478 1477 1477 1475 1474 1473 1471 1470 1469 1469 1469 1470 1471 1469 1470 1470 1461 1454 1456 1456 1456 1457 1457 1458 1459 1460 1462 1463 1464 1465 1465 1466 1466 1467 1468 1469 1471 1471 1471 1472 1471 1471 1472 1475 1481 1484 1481 1482 1481 1480 1479 1477 1475 1474 1470 1463 1460 1461 1461 1461 1462 1460 1457 1456 1459 1459 1460 1461 1461 1461 1462 1465 1468 1470 1472 1473 1474 1476
1488 1487 1486 1484 1484 1483 1482 1481 1480 1478 1477 1476 1476 1474 1473 1472 1470 1468 1468 1468 1468 1468 1468 1466 1467 1466 1457 1452 1455 1455 1455 1456 1456 1457 1458 1458 1460 1462 1463 1464 1465 1466 1466 1467 1468 1467 1469 1470 1471 1472 1471 1471 1473 1473 1476 1477 1476 1477 1478 1479 1480 1479 1475 1471 1469 1464 1461 1462 1461 1461 1460 1458 1455 1455 1458 1459 1459 1462 1461 1461 1463 1466 1468 1470 1471 1472 1473 1474
1487 1485 1484 1483 1482 1482 1480 1479 1478 1477 1475 1475 1475 1474 1473 1471 1469 1468 1467 1466 1464 1463 1463 1462 1461 1459 1454 1452 1453 1455 1455 1455 1455 1455 1456 1457 1459 1461 1461 1463 1464 1465 1466 1467 1467 1466 1467 1471 1471 1470 1470 1471 1472 1472 1472 1473 1474 1475 1477 1479 1479 1480 1476 1468 1466 1462 1461 1463 1460 1457 1458 1457 1453 1452 1455 1458 1459 1461 1462 1462 1464 1465 1467 1468 1469 1470 1471 1473
1485 1484 1483 1482 1481 1480 1479 1478 1476 1475 1474 1474 1474 1474 1473 1473 1472 1470 1467 1463 1459 1459 1459 1458 1459 1455 1451 1451 1452 1455 1456 1454 1453 1453 1455 1456 1457 1459 1460 1461 1464 1465 1465 1465 1467 1466 1467 1470 1468 1466 1469 1469 1469 1470 1472 1473 1474 1476 1477 1478 1479 1480 1475 1466 1464 1462 1459 1464 1461 1455 1457 1455 1450 1451 1454 1456 1457 1458 1458 1460 1462 1464 1466 1467 1467 1469 1470 1472
1484 1482 1481 1481 1479 1478 1477 1476 1475 1474 1474 1473 1474 1474 1474 1474 1473 1472 1469 1463 1456 1455 1456 1455 1455 1451 1447 1449 1451 1454 1458 1455 1452 1451 1453 1455 1455 1457 1458 1460 1463 1464 1464 1465 1467 1469 1470 1468 1464 1465 1467 1467 1469 1471 1473 1474 1474 1476 1477 1479 1479 1477 1472 1465 1462 1460 1458 1462 1459 1455 1457 1452 1448 1451 1453 1452 1452 1452 1453 1454 1456 1459 1463 1465 1465 1467 1468 1470
1482 1481 1480 1479 1478 1477 1476 1475 1474 1473 1473 1473 1473 1473 1473 1473 1472 1470 1470 1466 1455 1449 1450 1449 1449 1447 1443 1445 1448 1452 1455 1454 1452 1450 1451 1454 1453 1455 1457 1459 1462 1463 1464 1465 1468 1472 1472 1465 1461 1464 1465 1467 1469 1470 1473 1474 1475 1477 1478 1480 1479 1475 1475 1470 1463 1460 1459 1460 1458 1457 1457 1452 1450 1451 1450 1450 1449 1450 1453 1454 1455 1457 1458 1460 1462 1464 1464 1466
1481 1480 1479 1477 1477 1476 1474 1474 1472 1472 1472 1472 1472 1472 1472 1471 1471 1469 1467 1466 1456 1445 1443 1443 1443 1442 1438 1441 1446 1449 1449 1449 1450 1448 1448 1451 1451 1454 1455 1457 1460 1462 1463 1464 1466 1470 1467 1460 1459 1462 1464 1467 1468 1469 1473 1475 1476 1477 1476 1478 1477 1472 1473 1472 1466 1463 1461 1460 1458 1459 1458 1453 1453 1454 1452 1452 1450 1451 1454 1456 1459 1460 1459 1461 1462 1464 1465 1466
1479 1479 1477 1476 1475 1474 1474 1472 1471 1471 1470 1471 1472 1471 1472 1470 1470 1469 1466 1466 1457 1443 1439 1439 1439 1436 1434 1439 1443 1444 1445 1445 1445 1445 1446 1448 1449 1452 1454 1455 1459 1461 1462 1463 1466 1468 1462 1457 1458 1461 1464 1466 1468 1468 1470 1473 1475 1475 1472 1471 1470 1468 1468 1468 1467 1467 1466 1463 1458 1459 1465 1462 1457 1459 1459 1457 1454 1454 1456 1455 1458 1460 1461 1462 1463 1464 1465 1467
1478 1477 1476 1475 1474 1472 1472 1471 1470 1470 1469 1470 1471 1470 1471 1470 1469 1468 1467 1469 1461 1444 1438 1439 1437 1434 1433 1437 1438 1442 1447 1442 1439 1442 1445 1446 1448 1450 1453 1454 1455 1458 1460 1461 1464 1463 1457 1455 1456 1459 1462 1464 1467 1468 1466 1468 1475 1475 1467 1462 1463 1464 1466 1467 1467 1468 1468 1466 1459 1460 1471 1470 1460 1462 1465 1462 1459 1459 1459 1457 1458 1459 1460 1461 1462 1463 1464 1465
1476 1475 1474 1474 1472 1471 1470 1469 1470 1469 1468 1469 1469 1470 1471 1469 1470 1468 1468 1474 1463 1443 1438 1439 1437 1435 1433 1434 1435 1441 1445 1437 1435 1440 1441 1444 1447 1448 1452 1454 1453 1455 1455 1459 1464 1458 1452 1454 1456 1457 1460 1463 1467 1466 1462 1463 1472 1471 1459 1456 1460 1462 1465 1465 1465 1466 1465 1463 1459 1458 1466 1467 1463 1465 1467 1465 1464 1463 1462 1461 1460 1460 1460 1460 1461 1462 1463 1464
1474 1473 1473 1473 1472 1470 1469 1469 1469 1468 1468 1468 1468 1470 1469 1469 1470 1468 1471 1475 1457 1438 1437 1436 1435 1435 1433 1434 1435 1435 1436 1433 1434 1436 1437 1442 1445 1446 1450 1451 1451 1452 1451 1457 1463 1455 1449 1453 1454 1456 1460 1463 1461 1456 1455 1460 1465 1460 1451 1454 1457 1457 1461 1460 1462 1466 1465 1465 1464 1457 1460 1465 1466 1468 1468 1467 1468 1468 1465 1463 1461 1460 1460 1461 1461 1462 1463 1465
1473 1472 1471 1471 1471 1470 1468 1468 1467 1467 1467 1467 1468 1468 1468 1469 1468 1468 1477 1474 1448 1435 1436 1434 1435 1435 1434 1436 1436 1433 1432 1432 1432 1434 1436 1441 1443 1444 1447 1447 1448 1450 1450 1453 1456 1451 1449 1450 1450 1454 1458 1457 1452 1448 1451 1457 1457 1450 1449 1454 1454 1456 1460 1459 1461 1464 1465 1471 1468 1457 1456 1462 1465 1468 1470 1471 1470 1468 1465 1463 1462 1461 1461 1462 1462 1463 1464 1465
1472 1471 1470 1469 1469 1469 1467 1467 1466 1466 1466 1466 1467 1467 1467 1469 1468 1474 1482 1468 1445 1438 1436 1434 1437 1436 1436 1438 1437 1434 1433 1432 1431 1432 1436 1439 1441 1443 1444 1445 1447 1450 1452 1452 1451 1449 1447 1448 1449 1451 1451 1449 1446 1445 1447 1450 1448 1446 1450 1454 1455 1458 1458 1459 1463 1463 1468 1474 1464 1453 1454 1457 1462 1467 1469 1469 1466 1463 1463 1463 1463 1462 1462 1462 1463 1464 1465 1466
1470 1470 1468 1467 1467 1467 1466 1466 1465 1465 1466 1466 1466 1466 1467 1469 1473 1480 1475 1455 1444 1443 1438 1438 1440 1438 1439 1440 1438 1435 1434 1433 1432 1433 1437 1439 1442 1444 1444 1447 1449 1452 1455 1454 1452 1449 1447 1448 1448 1445 1444 1444 1444 1444 1444 1445 1445 1448 1452 1454 1457 1461 1459 1463 1467 1466 1475 1475 1458 1452 1455 1453 1459 1464 1462 1462 1461 1459 1458 1457 1458 1458 1459 1462 1464 1466 1467 1469
1469 1468 1467 1466 1466 1465 1465 1465 1464 1465 1465 1465 1466 1465 1467 1473 1477 1475 1463 1448 1448 1448 1444 1444 1442 1439 1439 1437 1436 1435 1433 1434 1432 1433 1436 1439 1442 1444 1444 1446 1449 1455 1461 1458 1454 1451 1447 1446 1445 1442 1440 1440 1443 1446 1446 1445 1447 1450 1453 1455 1461 1468 1469 1471 1472 1473 1476 1468 1457 1458 1456 1453 1461 1464 1461 1461 1460 1458 1457 1454 1453 1454 1457 1461 1464 1466 1468 1470
1467 1466 1465 1465 1464 1464 1464 1463 1463 1464 1465 1465 1466 1465 1469 1477 1475 1466 1459 1455 1453 1450 1448 1446 1443 1440 1437 1435 1433 1432 1433 1435 1433 1433 1434 1437 1441 1443 1442 1443 1445 1449 1456 1458 1457 1455 1450 1445 1442 1441 1438 1435 1438 1445 1447 1447 1447 1449 1451 1454 1462 1472 1480 1481 1480 1481 1475 1462 1459 1460 1454 1456 1463 1463 1462 1462 1458 1455 1456 1456 1456 1456 1457 1459 1461 1463 1465 1467
1465 1464 1464 1464 1464 1463 1463 1462 1462 1463 1464 1465 1465 1467 1472 1476 1470 1463 1461 1459 1453 1449 1449 1448 1444 1439 1436 1435 1432 1429 1433 1436 1433 1433 1436 1438 1443 1444 1444 1444 1443 1444 1449 1455 1458 1456 1456 1452 1441 1438 1437 1433 1433 1436 1438 1440 1443 1445 1445 1447 1455 1462 1471 1476 1473 1472 1468 1461 1461 1459 1458 1464 1466 1463 1462 1459 1455 1454 1454 1457 1458 1459 1460 1460 1461 1463 1464 1466
1464 1463 1463 1463 1463 1463 1462 1461 1461 1462 1464 1465 1466 1469 1472 1471 1467 1465 1462 1458 1454 1452 1450 1448 1446 1442 1438 1436 1433 1429 1432 1436 1434 1434 1437 1440 1442 1443 1442 1441 1441 1443 1446 1454 1457 1454 1456 1452 1437 1433 1434 1431 1431 1430 1429 1433 1440 1445 1444 1445 1451 1450 1453 1464 1468 1466 1464 1462 1464 1467 1469 1471 1467 1462 1460 1457 1456 1456 1456 1458 1459 1460 1462 1463 1466 1468 1470 1470
1463 1462 1462 1462 1463 1463 1462 1461 1461 1462 1464 1465 1467 1470 1470 1466 1465 1465 1462 1459 1458 1456 1454 1450 1446 1445 1444 1439 1436 1433 1431 1433 1434 1434 1437 1439 1439 1439 1439 1437 1438 1440 1442 1448 1453 1452 1454 1448 1435 1433 1433 1429 1430 1428 1427 1432 1438 1445 1446 1444 1446 1443 1444 1457 1469 1471 1467 1463 1471 1478 1475 1471 1467 1464 1462 1460 1461 1462 1461 1463 1463 1463 1464 1467 1470 1473 1474 1474
1462 1462 1462 1462 1463 1463 1462 1462 1462 1463 1464 1465 1467 1469 1469 1466 1464 1463 1461 1460 1460 1458 1458 1458 1451 1448 1448 1446 1441 1437 1433 1434 1435 1436 1439 1440 1439 1438 1438 1436 1436 1436 1436 1441 1446 1448 1451 1448 1437 1434 1434 1429 1427 1428 1427 1428 1431 1439 1443 1439 1441 1446 1447 1452 1463 1474 1473 1469 1476 1482 1478 1474 1473 1469 1466 1465 1467 1469 1468 1467 1467 1469 1470 1473 1475 1475 1475 1475
1462 1462 1462 1462 1463 1463 1463 1463 1463 1464 1464 1466 1469 1470 1470 1467 1462 1462 1461 1460 1460 1458 1460 1462 1454 1447 1449 1450 1445 1437 1435 1437 1437 1437 1439 1441 1439 1437 1437 1437 1436 1436 1435 1436 1441 1444 1448 1449 1439 1433 1435 1430 1426 1429 1431 1429 1428 1431 1434 1433 1438 1448 1453 1454 1461 1470 1473 1475 1480 1483 1481 1480 1478 1475 1473 1473 1475 1475 1473 1471 1470 1472 1475 1477 1478 1476 1475 1474
1462 1462 1462 1463 1463 1464 1464 1464 1464 1464 1464 1467 1470 1469 1467 1466 1462 1461 1461 1460 1459 1459 1459 1459 1454 1449 1449 1449 1445 1438 1435 1437 1439 1439 1439 1441 1440 1436 1436 1436 1435 1436 1436 1435 1440 1442 1445 1452 1445 1434 1433 1432 1429 1432 1435 1434 1430 1429 1433 1435 1437 1443 1449 1453 1456 1460 1464 1472 1481 1484 1482 1480 1479 1479 1478 1478 1478 1476 1474 1474 1473 1473 1476 1477 1477 1476 1475 1474
1461 1462 1463 1463 1464 1464 1465 1465 1465 1465 1465 1468 1470 1468 1465 1464 1461 1460 1460 1459 1458 1458 1457 1455 1454 1453 1450 1446 1443 1440 1437 1437 1439 1439 1439 1439 1439 1436 1435 1435 1434 1436 1436 1436 1440 1441 1444 1451 1450 1439 1433 1434 1435 1436 1437 1436 1433 1432 1435 1439 1440 1442 1446 1450 1455 1457 1458 1464 1474 1480 1482 1480 1477 1477 1477 1476 1476 1474 1473 1474 1474 1473 1475 1476 1476 1476 1474 1474
1461 1462 1463 1464 1465 1465 1465 1465 1466 1466 1467 1468 1469 1467 1465 1463 1460 1458 1458 1458 1456 1455 1454 1453 1452 1452 1449 1445 1442 1440 1438 1438 1439 1439 1439 1438 1438 1435 1433 1432 1433 1434 1436 1438 1440 1441 1443 1449 1451 1445 1440 1441 1441 1438 1437 1436 1434 1434 1436 1440 1442 1443 1444 1449 1458 1460 1457 1460 1467 1471 1476 1481 1478 1475 1475 1476 1475 1473 1473 1473 1473 1473 1474 1475 1477 1477 1477 1477
1462 1463 1464 1464 1465 1465 1465 1466 1467 1467 1468 1468 1467 1465 1464 1462 1460 1458 1457 1456 1455 1453 1451 1450 1448 1448 1447 1445 1442 1439 1439 1439 1439 1438 1438 1437 1436 1434 1432 1431 1432 1433 1436 1440 1442 1441 1442 1447 1450 1448 1446 1446 1444 1438 1437 1437 1435 1434 1437 1442 1444 1443 1442 1445 1453 1457 1457 1463 1468 1467 1472 1480 1478 1475 1476 1476 1475 1474 1474 1473 1473 1474 1475 1476 1477 1479 1481 1481
1462 1464 1465 1465 1466 1466 1467 1467 1467 1467 1467 1466 1465 1464 1463 1461 1459 1458 1456 1455 1454 1452 1451 1450 1447 1445 1444 1442 1441 1439 1439 1440 1439 1438 1438 1437 1435 1434 1433 1432 1433 1434 1436 1442 1445 1441 1442 1448 1450 1449 1448 1446 1441 1438 1436 1436 1435 1435 1439 1444 1445 1444 1444 1444 1446 1449 1453 1462 1465 1465 1475 1481 1478 1477 1477 1477 1477 1476 1475 1475 1475 1476 1476 1477 1478 1480 1482 1482
1463 1464 1465 1466 1467 1467 1468 1468 1468 1468 1467 1466 1465 1463 1462 1460 1459 1459 1457 1455 1454 1452 1452 1450 1447 1445 1444 1442 1441 1440 1439 1440 1439 1437 1437 1438 1437 1435 1433 1432 1434 1436 1437 1441 1442 1440 1446 1454 1453 1453 1457 1455 1451 1447 1441 1438 1438 1440 1443 1445 1444 1445 1446 1447 1448 1447 1452 1463 1461 1459 1474 1483 1479 1478 1479 1478 1478 1478 1477 1478 1479 1479 1479 1478 1479 1480 1480 1481
1463 1465 1466 1467 1467 1467 1467 1467 1467 1468 1467 1467 1467 1465 1463 1461 1458 1458 1457 1456 1454 1453 1453 1450 1447 1446 1445 1443 1442 1440 1439 1439 1439 1439 1438 1439 1438 1436 1434 1434 1435 1436 1437 1438 1437 1438 1447 1456 1455 1454 1460 1463 1461 1458 1452 1449 1449 1448 1448 1446 1444 1444 1444 1445 1448 1446 1452 1466 1466 1461 1472 1482 1480 1479 1481 1480 1480 1480 1480 1480 1482 1482 1481 1479 1478 1478 1479 1480
1462 1465 1467 1467 1467 1467 1466 1467 1467 1467 1467 1468 1467 1466 1466 1464 1459 1457 1456 1456 1454 1453 1452 1450 1447 1446 1446 1444 1443 1443 1442 1440 1440 1441 1442 1442 1441 1439 1437 1436 1436 1437 1437 1437 1437 1440 1448 1458 1460 1457 1457 1459 1461 1461 1458 1456 1453 1451 1450 1448 1447 1446 1444 1445 1447 1448 1454 1466 1471 1472 1474 1478 1480 1481 1481 1481 1482 1482 1483 1483 1483 1485 1483 1480 1479 1480 1480 1481
1462 1465 1466 1467 1467 1467 1467 1467 1467 1467 1467 1467 1468 1468 1467 1466 1462 1458 1456 1456 1455 1453 1452 1450 1448 1448 1449 1447 1445 1446 1447 1444 1442 1443 1445 1445 1443 1441 1440 1439 1438 1438 1438 1438 1439 1442 1448 1457 1463 1464 1463 1464 1465 1463 1459 1457 1456 1457 1456 1453 1451 1449 1444 1443 1449 1457 1460 1461 1469 1476 1475 1475 1479 1482 1482 1484 1484 1485 1486 1486 1486 1487 1484 1481 1481 1481 1482 1483
1463 1464 1466 1466 1467 1468 1468 1467 1467 1467 1467 1467 1468 1469 1468 1466 1464 1462 1459 1456 1455 1454 1453 1452 1452 1451 1451 1449 1447 1448 1450 1448 1447 1448 1448 1447 1446 1445 1443 1441 1440 1440 1440 1441 1442 1444 1450 1459 1464 1465 1467 1468 1466 1462 1460 1460 1462 1464 1465 1462 1459 1456 1449 1446 1455 1465 1462 1457 1464 1474 1476 1478 1483 1485 1486 1488 1487 1487 1489 1489 1489 1488 1486 1484 1483 1483 1485 1486
1463 1464 1465 1466 1466 1467 1468 1468 1467 1467 1467 1467 1468 1468 1467 1466 1464 1463 1461 1459 1457 1456 1455 1456 1455 1453 1452 1450 1449 1452 1453 1451 1452 1452 1450 1449 1450 1449 1447 1445 1443 1442 1441 1442 1445 1446 1452 1461 1464 1463 1467 1470 1467 1464 1462 1463 1464 1465 1468 1468 1466 1464 1461 1458 1463 1466 1463 1462 1468 1473 1479 1486 1489 1489 1490 1489 1489 1490 1490 1490 1490 1490 1488 1487 1486 1486 1488 1489
1463 1464 1465 1465 1466 1467 1468 1468 1468 1467 1467 1468 1468 1467 1467 1466 1464 1464 1462 1460 1460 1459 1457 1458 1457 1454 1454 1452 1450 1453 1454 1453 1455 1455 1452 1452 1452 1449 1449 1449 1446 1444 1443 1444 1447 1447 1450 1461 1464 1462 1467 1473 1472 1468 1466 1467 1467 1467 1468 1471 1470 1469 1468 1467 1468 1467 1466 1470 1476 1478 1483 1489 1491 1491 1491 1490 1490 1491 1491 1492 1493 1493 1492 1490 1489 1490 1491 1492
1464 1464 1465 1465 1467 1469 1468 1468 1469 1468 1468 1469 1468 1467 1467 1465 1464 1464 1463 1461 1461 1461 1459 1458 1457 1454 1454 1453 1452 1453 1453 1452 1454 1454 1452 1453 1452 1450 1451 1451 1448 1447 1446 1446 1448 1448 1450 1461 1465 1462 1468 1476 1476 1473 1471 1469 1467 1466 1469 1476 1477 1474 1472 1472 1472 1470 1468 1472 1478 1481 1483 1488 1492 1492 1492 1493 1493 1492 1494 1496 1496 1497 1497 1494 1492 1493 1494 1494
1464 1465 1465 1465 1468 1471 1470 1470 1470 1470 1470 1470 1469 1467 1467 1465 1463 1464 1464 1461 1459 1459 1459 1458 1456 1455 1454 1453 1452 1452 1451 1449 1449 1450 1451 1452 1452 1450 1450 1449 1448 1449 1448 1448 1450 1451 1452 1458 1462 1461 1469 1478 1479 1477 1475 1470 1467 1469 1476 1483 1484 1478 1475 1474 1474 1473 1471 1471 1475 1478 1481 1488 1492 1493 1493 1496 1497 1496 1498 1499 1498 1500 1501 1499 1497 1497 1497 1497